Location: Elstree
(51.6403°N, 0.2969°W)
Time: 20:53:20
(UTC+00:00)

PSLV R/B - Pass Details

Date: 03 March 2021
Orbit: 567 x 598 km, 98.2° (Epoch: 15 April)

Event Time Altitude Azimuth Distance (km) Brightness Sun altitude
Rises 18:32:37 0° 18° (NNE) 2,813 7.2 -8.1°
Reaches altitude 10° 18:34:50 10° 23° (NNE) 1,904 6.3 -8.5°
Maximum altitude 18:38:52 52° 101° (E) 720 4.0 -9.1°
Drops below altitude 10° 18:42:50 10° 178° (S) 1,872 6.5 -9.7°
Sets 18:45:00 0° 183° (S) 2,761 7.4 -10.1°
